GW5355 Weather Reports


time (UTC)temp
F
wind
direction
speed
knots
gust
knots
rain 1hr
in
rain 24hr
in
rain mn
in
humidity
%
barometer
mb
20260504214002 57 11 9.6 20.9 0.00 0.00 0.00 36 1004.5
20260504213503 57 284 13.0 23.5 0.00 0.00 0.00 34 1004.4
20260504213043 57 321 13.0 23.5 0.00 0.00 0.00 36 1004.3
20260504212503 58 290 12.2 25.2 0.00 0.00 0.00 35 1004.3
20260504212004 58 309 15.6 25.2 0.00 0.00 0.00 35 1004.3
20260504211521 59 360 11.3 20.0 0.00 0.00 0.00 35 1004.0
20260504211002 59 340 12.2 22.6 0.00 0.00 0.00 34 1003.9
20260504210503 59 265 9.6 24.3 0.00 0.00 0.00 35 1003.6
20260504210026 59 284 13.0 24.3 0.00 0.00 0.00 34 1003.6
20260504205503 60 279 13.0 21.7 0.00 0.00 0.00 33 1003.5
20260504205003 60 292 11.3 22.6 0.00 0.00 0.00 33 1003.5
20260504204522 60 360 9.6 25.2 0.00 0.00 0.00 33 1003.6
20260504204003 61 360 14.8 26.9 0.00 0.00 0.00 33 1003.6
20260504203511 62 306 13.0 26.9 0.00 0.00 0.00 33 1003.6
20260504203024 62 304 11.3 33.9 0.00 0.00 0.00 33 1003.4
20260504202504 62 304 13.0 33.9 0.00 0.00 0.00 32 1003.4
20260504202007 63 360 11.3 20.0 0.00 0.00 0.00 31 1003.4
20260504201529 63 321 13.0 20.0 0.00 0.00 0.00 30 1003.3
20260504201003 63 336 8.7 18.2 0.00 0.00 0.00 29 1003.4
20260504200507 63 360 7.8 24.3 0.00 0.00 0.00 31 1003.5
20260504200026 64 294 14.8 24.3 0.00 0.00 0.00 27 1003.4
20260504195502 64 336 12.2 26.1 0.00 0.00 0.00 27 1003.3
20260504195006 64 360 13.9 26.1 0.00 0.00 0.00 28 1003.3
20260504194504 65 341 14.8 26.1 0.00 0.00 0.00 29 1003.1
20260504194002 64 343 15.6 25.2 0.00 0.00 0.00 30 1003.0
20260504193506 63 360 13.9 25.2 0.00 0.00 0.00 30 1003.0
20260504193008 64 309 12.2 25.2 0.00 0.00 0.00 31 1003.0
20260504192506 66 310 13.0 20.9 0.00 0.00 0.00 32 1002.8
20260504192009 66 360 11.3 26.1 0.00 0.00 0.00 32 1002.7
20260504191504 66 360 13.9 26.1 0.00 0.00 0.00 31 1002.7
20260504191008 66 360 17.4 25.2 0.00 0.00 0.00 31 1002.6
20260504190507 66 360 18.2 25.2 0.00 0.00 0.00 30 1002.6
20260504190007 66 360 13.0 21.7 0.00 0.00 0.00 31 1002.6
20260504185508 66 336 13.9 20.0 0.00 0.00 0.00 32 1002.6
20260504185011 66 296 11.3 18.2 0.00 0.00 0.00 30 1002.7
20260504184514 66 305 13.0 20.0 0.00 0.00 0.00 29 1002.7
20260504184006 67 306 9.6 27.8 0.00 0.00 0.00 29 1002.6
20260504183508 67 329 13.9 27.8 0.00 0.00 0.00 29 1002.6
20260504183019 66 339 11.3 20.0 0.00 0.00 0.00 30 1002.5
20260504182509 66 11 9.6 20.9 0.00 0.00 0.00 30 1002.5
20260504182011 66 312 11.3 24.3 0.00 0.00 0.00 30 1002.6
20260504181512 66 349 15.6 24.3 0.00 0.00 0.00 31 1002.5
20260504181007 66 302 9.6 22.6 0.00 0.00 0.00 30 1002.4
20260504180511 66 360 9.6 23.5 0.00 0.00 0.00 30 1002.4
20260504180014 67 360 14.8 23.5 0.00 0.00 0.00 30 1002.2
20260504175506 66 302 13.0 22.6 0.00 0.00 0.00 28 1002.1
20260504175014 67 360 9.6 20.0 0.00 0.00 0.00 31 1001.9
20260504174512 66 360 11.3 19.1 0.00 0.00 0.00 30 1001.9
20260504174007 66 312 10.4 20.9 0.00 0.00 0.00 29 1001.8
20260504173025 67 340 13.0 23.5 0.00 0.00 0.00 29 1001.8
20260504172507 66 360 11.3 20.0 0.00 0.00 0.00 30 1001.6
20260504172011 66 360 10.4 21.7 0.00 0.00 0.00 31 1001.7
20260504171523 66 360 11.3 21.7 0.00 0.00 0.00 32 1001.8
20260504171009 66 360 16.5 22.6 0.00 0.00 0.00 30 1001.6
20260504170505 66 11 17.4 22.6 0.00 0.00 0.00 31 1001.7
20260504151013 63 360 17.4 22.6 0.00 0.00 0.00 44 1000.1
20260504150507 63 13 18.2 22.6 0.00 0.00 0.00 44 1000.1
20260504141006 61 309 11.3 20.0 0.00 0.00 0.00 50 999.9
20260504140506 61 288 9.6 20.0 0.00 0.00 0.00 50 999.8
20260504130503 58 253 13.9 19.1 0.00 0.00 0.00 49 999.1
20260504110503 53 215 7.0 11.3 0.00 0.00 0.00 56 999.2
20260504100505 53 217 7.8 13.0 0.00 0.00 0.00 56 999.8
20260504081512 50 215 8.7 12.2 0.00 0.00 0.00 58 1000.8
20260504081007 50 228 6.1 10.4 0.00 0.00 0.00 59 1000.9
20260504080510 50 229 7.0 9.6 0.00 0.00 0.00 58 1000.9
20260504050507 53 215 4.3 7.8 0.00 0.00 0.00 50 1003.6
20260504050004 53 360 5.2 7.0 0.00 0.00 0.00 50 1003.7
20260504045504 53 222 4.3 7.0 0.00 0.00 0.00 50 1003.7
20260504045012 53 216 3.5 7.0 0.00 0.00 0.00 50 1003.8
20260504044510 53 206 4.3 6.1 0.00 0.00 0.00 50 1003.8
20260504044006 54 204 3.5 6.1 0.00 0.00 0.00 49 1003.8
20260504043508 53 231 3.5 6.1 0.00 0.00 0.00 49 1003.9
20260504043009 54 204 2.6 7.0 0.00 0.00 0.00 50 1003.9
20260504042507 53 214 4.3 7.0 0.00 0.00 0.00 50 1004.0
20260504042009 54 205 3.5 6.1 0.00 0.00 0.00 50 1004.2
20260504041510 54 211 3.5 6.1 0.00 0.00 0.00 49 1004.3
20260504041006 53 200 3.5 5.2 0.00 0.00 0.00 50 1004.4
20260504040510 53 217 2.6 4.3 0.00 0.00 0.00 49 1004.5
20260504040010 54 223 2.6 4.3 0.00 0.00 0.00 49 1004.5
20260504035511 54 206 2.6 4.3 0.00 0.00 0.00 49 1004.6
20260504035008 54 186 1.7 3.5 0.00 0.00 0.00 47 1004.7
20260504034512 54 204 1.7 3.5 0.00 0.00 0.00 47 1004.8
20260504034006 54 213 1.7 3.5 0.00 0.00 0.00 47 1004.9
20260504033510 54 202 1.7 4.3 0.00 0.00 0.00 47 1005.0
20260504033013 55 202 2.6 4.3 0.00 0.00 0.00 47 1005.1
20260504032508 55 360 2.6 4.3 0.00 0.00 0.00 46 1005.2
20260504032012 55 220 0.0 3.5 0.00 0.00 0.00 46 1005.2
20260504031516 55 230 0.0 1.7 0.00 0.00 0.00 46 1005.3
20260504031008 55 237 0.9 2.6 0.00 0.00 0.00 46 1005.4
20260504030506 56 244 0.9 3.5 0.00 0.00 0.00 45 1005.4
20260504030013 56 219 1.7 3.5 0.00 0.00 0.00 45 1005.5
20260504025507 56 239 0.9 4.3 0.00 0.00 0.00 45 1005.5
20260504025003 57 248 2.6 5.2 0.00 0.00 0.00 43 1005.6
20260504024520 58 232 3.5 6.1 0.00 0.00 0.00 43 1005.5
20260504024012 57 241 2.6 6.1 0.00 0.00 0.00 44 1005.4
20260504023503 58 219 3.5 4.3 0.00 0.00 0.00 42 1005.5
20260504023020 58 217 3.5 5.2 0.00 0.00 0.00 41 1005.5
20260504022511 59 247 1.7 7.0 0.00 0.00 0.00 41 1005.5
20260504022004 59 215 4.3 7.8 0.00 0.00 0.00 41 1005.4
20260504021525 59 218 4.3 7.8 0.00 0.00 0.00 40 1005.5
20260504021009 59 254 4.3 7.0 0.00 0.00 0.00 39 1005.6
20260504020502 59 238 3.5 6.1 0.00 0.00 0.00 40 1005.6
20260504020021 60 269 1.7 7.0 0.00 0.00 0.00 38 1005.6
20260504015508 61 243 3.5 7.0 0.00 0.00 0.00 37 1005.6
20260504015003 61 259 4.3 7.0 0.00 0.00 0.00 36 1005.6
20260504014521 62 245 3.5 7.8 0.00 0.00 0.00 36 1005.7
20260504014006 62 230 3.5 7.8 0.00 0.00 0.00 36 1005.7
20260504013503 61 241 3.5 6.1 0.00 0.00 0.00 36 1005.7
20260504013029 62 261 3.5 7.0 0.00 0.00 0.00 36 1005.7
20260504012507 62 261 3.5 7.0 0.00 0.00 0.00 36 1005.8
20260504012007 63 268 5.2 7.8 0.00 0.00 0.00 36 1005.8
20260504011522 63 269 6.1 7.8 0.00 0.00 0.00 35 1005.9
20260504011011 64 259 7.0 8.7 0.00 0.00 0.00 34 1005.9
20260504010505 65 260 6.1 11.3 0.00 0.00 0.00 33 1005.9
20260504010023 66 275 7.8 11.3 0.00 0.00 0.00 32 1005.9
20260504005509 66 360 5.2 8.7 0.00 0.00 0.00 31 1005.9
20260504005005 67 257 6.1 11.3 0.00 0.00 0.00 31 1006.0
20260504004522 67 360 7.8 13.0 0.00 0.00 0.00 29 1006.0
20260504004010 68 253 8.7 13.9 0.00 0.00 0.00 29 1005.9
20260504003507 68 284 10.4 13.9 0.00 0.00 0.00 28 1005.9
20260504003025 68 280 8.7 13.9 0.00 0.00 0.00 28 1006.0
20260504002509 69 260 9.6 13.9 0.00 0.00 0.00 28 1006.0
20260504002006 69 265 8.7 13.0 0.00 0.00 0.00 28 1006.1
20260504001524 69 360 4.3 12.2 0.00 0.00 0.00 26 1006.1
20260504001002 70 336 4.3 12.2 0.00 0.00 0.00 26 1006.1
20260504000506 70 360 5.2 13.0 0.00 0.00 0.00 27 1006.2
20260504000027 70 319 5.2 13.0 0.00 0.00 0.00 26 1006.2
20260503235503 70 312 3.5 15.6 0.00 0.00 0.00 26 1006.2
20260503235007 70 288 7.0 15.6 0.00 0.00 0.00 25 1006.3
20260503234528 70 269 11.3 13.9 0.00 0.00 0.00 24 1006.3
20260503234008 70 260 9.6 16.5 0.00 0.00 0.00 24 1006.3
20260503233507 70 360 7.0 16.5 0.00 0.00 0.00 25 1006.4
20260503233026 70 269 9.6 14.8 0.00 0.00 0.00 25 1006.4
20260503232503 71 329 8.7 13.9 0.00 0.00 0.00 26 1006.4
20260503232002 71 236 7.8 13.0 0.00 0.00 0.00 26 1006.5
20260503231508 71 252 9.6 15.6 0.00 0.00 0.00 28 1006.4
20260503231006 71 284 6.1 16.5 0.00 0.00 0.00 27 1006.5
20260503230503 71 360 10.4 16.5 0.00 0.00 0.00 28 1006.5
20260503230009 72 265 5.2 13.0 0.00 0.00 0.00 26 1006.6
20260503225503 71 315 5.2 13.0 0.00 0.00 0.00 27 1006.6
20260503225003 71 284 4.3 13.0 0.00 0.00 0.00 26 1006.6
20260503224510 71 360 7.0 13.0 0.00 0.00 0.00 26 1006.7
20260503224005 72 331 6.1 13.0 0.00 0.00 0.00 25 1006.7
20260503223501 72 301 7.8 13.0 0.00 0.00 0.00 25 1006.6
20260503223011 71 298 7.0 14.8 0.00 0.00 0.00 25 1006.7
20260503222508 72 360 6.1 14.8 0.00 0.00 0.00 25 1006.8
20260503222003 72 285 7.0 13.0 0.00 0.00 0.00 26 1006.8
20260503221510 71 285 7.0 17.4 0.00 0.00 0.00 24 1006.9
20260503221006 71 277 10.4 17.4 0.00 0.00 0.00 23 1006.9
20260503220503 72 311 5.2 13.0 0.00 0.00 0.00 25 1006.9
20260503220010 72 277 7.8 15.6 0.00 0.00 0.00 23 1007.0
20260503215502 71 302 7.0 18.2 0.00 0.00 0.00 23 1007.0
20260503215002 71 304 11.3 20.9 0.00 0.00 0.00 22 1007.0
20260503214514 72 360 12.2 20.9 0.00 0.00 0.00 23 1007.1